星链-3915 (STARLINK-3915 )

导读 | 豆包AI

STARLINK-3915是美国太空探索技术公司(SpaceX)于2022年5月13日发射的星链(Starlink)低轨通信卫星,属于星链V1.0版本。它运行在近地点约355km、远地点约357km的近地轨道,轨道倾角43.001°,是SpaceX全球卫星互联网项目的组成部分,为全球偏远地区等区域提供高速低延迟互联网接入服务,助力缩小数字鸿沟。

基本信息
目录编号:
52581
目录名称:
STARLINK-3915
国际标识:
2022-051AX
轨道中心:
EARTH
卫星名称:
星链-3915
卫星全名:
星链-3915 (STARLINK-3915 )
卫星状态:
在轨 (已飞行1402 天)
发射日期:
2022-05-13 UTC
国别 :
美国 (US)
星等 :
--
轨道信息
数据来源 国际轨道数据 AOE轨道数据
星历时间 2026-03-14T18:38:38+0800
16小时前
查看轨道信息
2026-03-13T01:00:00+0800
2天前
查看轨道信息
半长轴 6917.893km 6917.893km
偏心率 0.0001271 0.0001601
轨道倾角 53.216° 53.216°
近地点辐角 88.768° 84.947°
升交点赤经 97.781° 105.573°
平近点角 271.346° 204.953°
近地点 538.876km 538.648km
远地点 540.636km 540.864km
周期 95.438分钟 95.438分钟
每日圈数 15.088361 15.088361
详细信息
固有亮度:
5
最大亮度:
2.5
卫星平台:
Starlink v1.5
覆盖范围:
全球
运营商:
太空探索技术公司
运营商所在国:
美国
制造商(研发单位):
太空探索技术公司
制造商所在国:
美国
使用方式:
暂无
卫星简介
星链(Starlink)计划是由太空探索技术公司(SpaceX)提出的一个巨型低轨卫星互联网星座项目,计划在2019年至2024年间在太空搭建由约1.2万颗卫星组成的“星链”网络,其中1584颗将部署在地球上空550千米处的近地轨道,并从2020年开始工作。该卫星仍在工作。
2D轨道图
3D轨道图
轨道高度分析图
轨道倾角分析图
轨道综合分析图
查看轨道综合分析图